Regional Weather Roundup
Issued by NWS Grand Forks, ND

Home | Current Version | Previous Version | Graphics & Text | Print | Product List | Glossary On
Versions: 1 2 3 4 5 6 7 8 9 10 11 12 13 14 15 16 17 18 19 20 21 22 23 24 25 26 27 28 29 30 31 32 33 34 35 36 37 38 39 40 41 42 43 44 45 46 47 48 49 50
000
ASUS43 KFGF 270131
RWRFGF
PRAIRIE TO PINES  WEATHER ROUNDUP
NATIONAL WEATHER SERVICE EASTERN NORTH DAKOTA/GRAND FORKS ND
800 PM CDT TUE JUL 26 2016

 **SATELLITE DATA USED TO AUGMENT SKY COVER AT AUTOMATED STATIONS**
 *****  WEATHER ACROSS EASTERN NORTH DAKOTA  *****

CITY           SKY/WX    TMP DP  RH WIND       PRES   REMARKS
GRAND FORKS    CLOUDY    78  65  63 N13       29.97R
GRAND FRKS AFB CLOUDY    75  65  71 N12       29.98R
GRAND FRKS NWS   N/A     75 N/A N/A VRB6        N/A
DEVILS LAKE    CLOUDY    66  64  94 E3        30.04R
FARGO          CLOUDY    76  66  71 W12       29.94R
WAHPETON ARPT  CLOUDY    72  63  73 W6        29.97R
$$

 ***** WEATHER ACROSS CENTRAL AND WESTERN NORTH DAKOTA  *****

CITY           SKY/WX    TMP DP  RH WIND       PRES   REMARKS
BISMARCK       PTSUNNY   78  66  66 N16G24    30.00R
MINOT          CLOUDY    76  60  57 N6        30.05R
JAMESTOWN      LGT RAIN  71  69  93 CALM      29.99R
MINOT AFB      PTSUNNY   74  57  55 N6        30.04S
GARRISON         N/A     69  67  93 N9        30.04F
WILLISTON      PTSUNNY   78  55  44 NE10      30.06F
DICKINSON      SUNNY     73  54  51 NE10      30.05F
HETTINGER      SUNNY     78  61  55 NE16      30.05F
$$

 *****  OTHER AIRPORT OBSERVATIONS IN OUR AREA  *****

CITY           SKY/WX    TMP DP  RH WIND       PRES   REMARKS
WALHALLA       FAIR      72  68  88 N7        30.03R
GRAFTON AIRPOR FAIR      72  66  83 N8        30.01R
VALLEY CITY AR LGT RAIN  68  68 100 CALM      30.03R
CANDO          FAIR      72  64  78 NE5       30.07R
CAVALIER APRT  FAIR      75  63  64 N8        30.01R
GWINNER        FAIR      75  68  78 N10       29.99R
SHEYENNE NWR     N/A     75  65  70 N7        29.95S
ROLLA          FAIR      68  64  88 E3        30.08R
 ***** THE ABOVE OBSERVATIONS ARE NON NWS ARE NOT QUALITY
       CONTROLLED AND MAY MIS-REPORT RAIN FOR SNOW...
$$

  *****  WEATHER ACROSS NORTHERN MINNESOTA  *****

CITY           SKY/WX    TMP DP  RH WIND       PRES   REMARKS
FLAG ISLAND    PTCLDY    75  55  50 N14       29.98S
WARROAD        CLOUDY    75  66  73 N6        29.99S
ROSEAU         CLOUDY    72  64  78 N5        29.99S
HALLOCK        CLOUDY    73  61  64 N6        29.99R
THF RVR FALLS  CLOUDY    76  65  68 N8        29.99R
BAUDETTE       MOCLDY    75  62  64 N3        29.97F
WASKISH        CLOUDY    72  64  78 N3        29.97S
CROOKSTON      CLOUDY    77  66  69 NE7       29.96F
STEPHEN NDAWN    N/A     73  64  73 N8          N/A
GREENBUSH NDAW   N/A    N/A N/A N/A VRB7        N/A
$$
  *****  WEATHER ACROSS CENTRAL AND WEST MINNESOTA  *****

CITY           SKY/WX    TMP DP  RH WIND       PRES   REMARKS
FOSSTON        CLOUDY    73  64  73 CALM      29.97S
BEMIDJI        CLOUDY    75  64  69 CALM      29.96F
PARK RAPIDS    CLOUDY    78  69  73 S5        29.95F
ELBOW LAKE     FAIR      74  68  83 NW5       29.98R
WADENA         PTCLDY    72  64  78 CALM      29.96R
DETROIT LAKES  CLOUDY    77  70  78 CALM      29.97F
MOORHEAD       LGT RAIN  72  68  88 W9        29.96R
FERGUS FALLS   CLOUDY    73  66  78 NW7       29.97R
MORRIS MN      CLOUDY    75  68  78 W5        29.96S
STAPLES        PTCLDY    72  61  68 N3        29.95F
$$
  *****  WEATHER ELSEWHERE ACROSS MINNESOTA  *****

CITY           SKY/WX    TMP DP  RH WIND       PRES   REMARKS
DULUTH         CLOUDY    77  69  76 NW3       29.98R
INTRNTL FALLS  CLOUDY    76  56  49 N8        29.96F
ELY            CLOUDY    75  61  60 CALM      29.96S
CLOQUET        CLOUDY    75  66  73 CALM      29.97F
WHEATON        CLOUDY    75  68  78 CALM      29.98R
BRAINERD       PTCLDY    71  64  78 SE5       29.97F
HIBBING        CLOUDY    73  68  84 W7        29.97R
ALEXANDRIA     CLOUDY    71  63  75 SE3       29.98R
SAINT CLOUD    MOCLDY    74  64  71 VRB5      29.97S
MINNEAPOLIS    MOCLDY    86  66  51 SW12      29.95F
$$

  *****  WEATHER ACROSS SOUTH DAKOTA  *****

CITY           SKY/WX    TMP DP  RH WIND       PRES   REMARKS
SIOUX FALLS    MOCLDY    82  66  58 S13       29.97S
BROOKINGS      PTCLDY    75  72  88 E7        29.96F
WATERTOWN      CLOUDY    75  65  70 SE5       29.96S
HURON          CLOUDY    79  66  64 SE12      29.89F
SISSETON         N/A     73  70  90 CALM      29.97R
ABERDEEN       CLOUDY    78  68  71 NE7       29.95R
MITCHELL       CLOUDY    84  62  47 S12       29.93F
PIERRE         CLOUDY    77  67  71 SE12      29.91S
MOBRIDGE       PTSUNNY   83  66  56 NE7       29.92S
RAPID CITY     CLOUDY    79  56  45 N15       29.98R
$$

  *****  SOME WEATHER IN NEARBY STATES *****

CITY           SKY/WX    TMP DP  RH WIND       PRES   REMARKS
GLASGOW MT     MOSUNNY   78  57  48 E16       30.02R
GREAT FALLS MT CLOUDY    72  49  44 N13       30.06S THUNDER
CHEYENNE WY    PTSUNNY   83  41  22 S12       30.16F
SCOTTSBLUFF NE CLOUDY    88  37  16 SW15G22   29.99R
OMAHA NE       PTCLDY    84  66  54 SE9       29.99S
DES MOINES IA  PTCLDY    82  66  58 SE8       30.01S
DAVENPORT IA   PTCLDY    78  69  73 NE5       30.03R
CHICAGO IL     PTCLDY    82  62  50 E8        30.01R
EAU CLAIRE WI  CLEAR     82  68  62 SW5       29.96S
LA CROSSE WI   CLEAR     84  68  58 S8        29.97F
$$

  *****  SOME NATIONAL WEATHER *****

CITY           SKY/WX    TMP DP  RH WIND       PRES   REMARKS
LA GUARDIA NY  MOCLDY    86  61  42 NW13      29.88R
RALEIGH NC     TSTM      80  76  87 SW9       29.96R
ATLANTA GA     PTCLDY    88  67  49 S8        30.01R HX  91
NEW ORLEANS LA CLOUDY    79  75  87 S10       29.94S
OKLAHOMA CITY  MOCLDY    84  73  69 SE9       29.93R HX  90
ALBUQUERQUE NM PTSUNNY   90  48  23 N16       30.09R
SALT LAKE CITY MOSUNNY  100  23   6 NE10      29.98S HX  93
LOS ANGELES CA MOSUNNY   75  65  70 W15       29.83F
BOISE ID       SUNNY     98  39  13 N13       29.91F HX  93
SEATTLE WA     MOSUNNY   77  59  53 SW3       30.11F
$$

*** WEATHER ACROSS MANITOBA...SASKATCHEWAN AND ONTARIO ***
                ***ONTARIO***

CITY           SKY/WX    TMP DP  RH WIND       PRES   REMARKS
GERALDTON      PTCLDY    73  52  46 NW5       29.88S
THUNDER BAY    PTCLDY    79  55  44 NW5       29.88R
SIOUX LOOKOUT  MOCLDY    68  57  68 N3        29.97R
TORONTO        PTCLDY    81  57  44 NW12      29.95S
BIG TROUT LK   NOT AVBL
PICKLE LAKE    PTCLDY    68  50  52 N12G20    29.96S
DRYDEN         CLEAR     73  52  46 N5        29.99R
KENORA         MOCLDY    73  50  43 NW7       30.01R
$$
                *** MANITOBA***

CITY           SKY/WX    TMP DP  RH WIND       PRES   REMARKS
BRANDON        PTSUNNY   72  59  64 E10       30.07R
DAUPHIN        SUNNY     70  55  60 NE6       30.09S
ISLAND LAKE    CLOUDY    61  55  82 N9        30.08F
PILOT MOUND      N/A     72  57  60 NE8         N/A
THE PAS        MOSUNNY   73  39  29 N5        30.10S
THOMPSON       PTSUNNY   61  52  72 N7        30.14S
WINNIPEG       PTSUNNY   72  61  68 NE14G20   30.03S
LYNN LAKE      SUNNY     70  37  30 MISG      30.11S
CHURCHILL      PTSUNNY   52  48  87 N8        30.12S
GILLAM         CLOUDY    57  50  77 N10       30.12R
$$
                ***SASKATCHEWAN***

CITY           SKY/WX    TMP DP  RH WIND       PRES   REMARKS
ESTEVAN        PTSUNNY   73  55  53 NE8       30.08S
KINDERSLEY     MOSUNNY   72  59  64 E8        30.10F
LLOYDMINSTER   PTSUNNY   72  55  56 S10       30.08R
PRINCE ALBERT  MOSUNNY   75  54  46 CALM      30.08F
REGINA         PTSUNNY   73  54  49 NE12      30.09R
YORKTON        SUNNY     70  52  52 N7        30.10R
N. BATTLEFORD  SUNNY     75  50  41 SE7       30.11R
LA RONGE       MOSUNNY   72  46  40 SE7       30.09F
SASKATOON      MOSUNNY   75  48  38 SE10      30.12R
SWIFT CURRENT  SUNNY     70  57  64 E14       30.10R
$$
NOTE: THESE ARE AUTOMATED STATIONS WITH LIMITED QUALITY CONTROL
      "FAIR" INDICATES FEW OR NO CLOUDS BELOW 12,000 FEET WITH NO
      SIGNIFICANT WEATHER AND/OR OBSTRUCTIONS TO VISIBILITY.
      SKY/WX - SKY CONDITION AND SIGNIFICANT WEATHER.
      TMP - AIR TEMPERATURE.    DP   - DEWPOINT TEMPERATURE.
      RH  - RELATIVE HUMIDITY.  PRES - PRESSURE.
      HX  - HEAT INDEX.         WCI  - WIND CHILL INDEX.
$



USA.gov is the U.S. government's official web portal to all federal, state and local government web resources and services.